Weather in Dahab

Egypt     28°29′37″N   34°30′17″E
temp.,
°C
wind,
m/s
gust,
m/s
humid.,
%
clouds,
%
prec.,
mm/h
press.,
hPa
HPBL,
m
21 april, wed
wed2123:00+27nnw553747 0.0 101145
02:00+26n67420 0.0 101076
05:00+24n8104432 0.0 1011150
08:00+27nne663627 0.0 1012344
11:00+31ne772943 0.0 1011597
14:00+33nne882598 0.0 10091057
17:00+30n91128100 0.1 1010335
20:00+27nnw6830100 0.1 1012231
22 april, thu
thu2223:00+26nnw6733100 0.1 101393
02:00+24nnw6836100 0.1 1012114
05:00+23n79377 0.0 1013142
08:00+26n810300 0.0 1014432
11:00+30nne99240 0.0 1013591
14:00+31nne1011210 0.0 1010769
17:00+30n1113220 0.0 1011722
20:00+26nnw67290 0.0 101384
23 april, fri
fri2323:00+24nnw67320 0.0 1014106
02:00+23nnw66310 0.0 101285
05:00+23nnw67290 0.0 101285
08:00+26n79260 0.0 1012467
11:00+29n78250 0.0 1011561
14:00+31nne66245 0.0 10081022
17:00+31nne672341 0.0 1008475
20:00+28nnw672391 0.0 101085
24 april, sat
sat2423:00+26nw55265 0.0 101034
02:00+24nnw55310 0.0 100944
05:00+24nnw44324 0.0 100830
08:00+27nne45292 0.0 1009366
11:00+29ene44316 0.0 1009707
14:00+29e23292 0.0 1007514
17:00+29ssw11302 0.0 1006274
20:00+28n3326100 0.0 100721
25 april, sun
sun2523:00+27nnw333178 0.0 100915
02:00+26nw33354 0.0 100815
05:00+25nw22380 0.0 100813
08:00+27ene22360 0.0 1009299
11:00+28se23340 0.0 1009465
14:00+30s34250 0.0 1007451
17:00+29ssw23260 0.0 1006222
20:00+27nnw11310 0.0 100811